This is the latest recevied weather packets stored in our database for station/object KJ7BRE-1. If no packets are shown the sender has not sent any weather packets the latest 10 day(s).
| Time | Temp. | Humidity | Pressure | Rain* | Wind** | Luminosity | Snow |
|---|---|---|---|---|---|---|---|
| 1788030426 | 19.44° C | 55% | 1017.9 hPa | 0 mm | - | - | - |
| 1788030125 | 19.44° C | 58% | 1017.9 hPa | 0 mm | - | - | - |
| 1788029824 | 18.89° C | 58% | 1017.9 hPa | 0 mm | - | - | - |
| 1788029523 | 18.89° C | 58% | 1017.9 hPa | 0 mm | - | - | - |
| 1788029222 | 19.44° C | 59% | 1017.9 hPa | 0 mm | - | - | - |
| 1788028619 | 20° C | 55% | 1017.9 hPa | 0 mm | - | - | - |
| 1788028318 | 20.56° C | 54% | 1017.9 hPa | 0 mm | - | - | - |
| 1788028017 | 20° C | 54% | 1017.9 hPa | 0 mm | - | - | - |
| 1788027414 | 20° C | 58% | 1017.9 hPa | 0 mm | - | - | - |
| 1788027113 | 19.44° C | 58% | 1018.3 hPa | 0 mm | - | - | - |
| 1788026811 | 20° C | 59% | 1017.9 hPa | 0 mm | - | - | - |
| 1788026510 | 20.56° C | 56% | 1017.9 hPa | 0 mm | - | - | - |
| 1788026209 | 20° C | 55% | 1018.3 hPa | 0 mm | - | - | - |
| 1788025908 | 18.89° C | 59% | 1017.9 hPa | 0 mm | - | - | - |
| 1788025607 | 19.44° C | 60% | 1017.9 hPa | 0 mm | - | - | - |
| 1788025305 | 19.44° C | 59% | 1018.3 hPa | 0 mm | - | - | - |
| 1788025004 | 18.89° C | 62% | 1018.3 hPa | 0 mm | - | - | - |
| 1788024703 | 18.89° C | 65% | 1018.3 hPa | 0 mm | - | - | - |
| 1788024402 | 18.89° C | 66% | 1018.3 hPa | 0 mm | - | - | - |
| 1788024101 | 17.78° C | 67% | 1017.9 hPa | 0 mm | - | - | - |
| 1788023799 | 17.78° C | 68% | 1018.3 hPa | 0 mm | - | - | - |
| 1788023498 | 17.78° C | 68% | 1018.3 hPa | 0 mm | - | - | - |
| 1788023197 | 17.78° C | 68% | 1018.3 hPa | 0 mm | - | - | - |
| 1788022895 | 17.22° C | 71% | 1017.9 hPa | 0 mm | - | - | - |
| 1788022593 | 17.22° C | 69% | 1018.3 hPa | 0 mm | - | - | - |
* Rain latest hour (hover to see other rain measurements)
** Current wind speed in m/s (hover to see current wind gust speed)